Sigfox identifier Datetime Temperature Humidity SNR
003B9A84 2018-10-09 08:29:34 20.6 40 16.7
003B9A84 2018-10-09 07:25:21 20.6 39 17.1
003B9A84 2018-10-09 06:21:15 20.6 39 17
003B9A84 2018-10-09 05:17:05 20.6 39 17.1
003B9A84 2018-10-09 02:04:35 20.6 39 17.1
003B9A84 2018-10-09 01:00:24 20.6 38 17.1
003B9A84 2018-10-08 23:56:11 20.6 38 17.3
003B9A84 2018-10-08 22:52:03 20.6 38 17.5
003B9A84 2018-10-08 21:47:48 20.6 38 17.7
003B9A84 2018-10-08 19:39:28 20.6 38 17.7
003B9A84 2018-10-08 18:35:14 20.6 37 17.9
003B9A84 2018-10-08 17:31:09 20.5 37 17.9
003B9A84 2018-10-08 16:26:54 20.5 37 17.9
003B9A84 2018-10-08 15:22:42 20.4 36 17.9
003B9A84 2018-10-08 14:18:29 20.4 36 18
003B9A84 2018-10-08 12:10:09 20.4 35 18
003B9A84 2018-10-08 11:06:01 20.3 35 18.2
003B9A84 2018-10-08 08:57:39 20.2 35 18.2
003B9A84 2018-10-08 07:53:22 20.2 35 18
003B9A84 2018-10-08 06:49:08 20.2 36 18.1
003B9A84 2018-10-08 05:44:54 20.3 36 17.5
003B9A84 2018-10-08 04:40:38 20.3 36 17.4
003B9A84 2018-10-08 03:36:24 20.3 36 17.6
003B9A84 2018-10-08 02:32:12 20.4 37 17.9
003B9A84 2018-10-08 01:27:58 20.4 37 17.7
003B9A84 2018-10-08 00:23:45 20.4 37 17.9
003B9A84 2018-10-07 23:19:32 20.4 38 17.8
003B9A84 2018-10-07 22:15:19 20.4 38 18
003B9A84 2018-10-07 21:11:09 20.4 38 18.1
003B9A84 2018-10-07 20:07:06 20.4 39 18.1
003B9A84 2018-10-07 19:02:57 20.4 39 18.2
003B9A84 2018-10-07 16:54:36 20.4 39 18.3
003B9A84 2018-10-07 15:50:24 20.4 39 18.3
003B9A84 2018-10-07 14:46:14 20.4 39 18.1
003B9A84 2018-10-07 13:42:04 20.4 39 18.3
003B9A84 2018-10-07 12:37:48 20.5 39 18.2
003B9A84 2018-10-07 11:33:33 20.4 39 18.3
003B9A84 2018-10-07 09:25:04 20.6 39 18.4
003B9A84 2018-10-07 08:20:49 20.6 39 18.5
003B9A84 2018-10-07 07:16:37 20.6 39 18.7
003B9A84 2018-10-07 06:12:23 20.6 40 18.9
003B9A84 2018-10-07 05:08:08 20.6 40 18.7
003B9A84 2018-10-07 04:03:58 20.6 40 18.5
003B9A84 2018-10-07 02:59:43 20.6 40 18.3
003B9A84 2018-10-07 01:55:32 20.6 40 18.3
003B9A84 2018-10-07 00:51:16 20.6 40 18.6
003B9A84 2018-10-06 23:47:02 20.6 40 18.8
003B9A84 2018-10-06 22:42:49 20.7 40 18.6
003B9A84 2018-10-06 21:38:35 20.7 40 18.3
003B9A84 2018-10-06 20:34:21 20.7 40 18.3
003B9A84 2018-10-06 19:30:07 20.8 40 18.2
003B9A84 2018-10-06 18:25:54 20.8 40 18.3
003B9A84 2018-10-06 17:21:40 20.8 40 18.2
003B9A84 2018-10-06 16:17:28 20.8 41 18.3
003B9A84 2018-10-06 15:13:17 20.8 41 18.2
003B9A84 2018-10-06 14:09:04 20.8 41 18.3
003B9A84 2018-10-06 13:04:52 20.8 41 18.2
003B9A84 2018-10-06 12:00:38 20.8 41 18.2
003B9A84 2018-10-06 10:56:27 20.8 41 18.2
003B9A84 2018-10-06 09:52:12 20.8 41 18.1
003B9A84 2018-10-06 08:47:59 20.8 41 18.2
003B9A84 2018-10-06 07:43:50 20.8 41 17.9
003B9A84 2018-10-06 06:39:39 20.8 41 17.9
003B9A84 2018-10-06 05:35:31 20.8 42 17.9
003B9A84 2018-10-06 04:31:17 20.9 42 17.4
003B9A84 2018-10-06 03:27:04 21 42 17.1
003B9A84 2018-10-06 02:22:49 21 42 17
003B9A84 2018-10-06 01:18:35 21 43 17.2
003B9A84 2018-10-06 00:14:19 21 43 17.4
003B9A84 2018-10-05 23:10:03 21 43 17.2
003B9A84 2018-10-05 22:05:46 21.2 43 16.1
003B9A84 2018-10-05 21:01:26 21.2 44 14.3
003B9A84 2018-10-05 19:57:08 21.2 44 14.6
003B9A84 2018-10-05 18:52:51 21.2 44 15.1
003B9A84 2018-10-05 17:48:34 21.4 45 16
003B9A84 2018-10-05 16:44:14 21.5 45 16.1
003B9A84 2018-10-05 15:39:54 21.6 53 0